Change the Weather History Date:

Saturday, November 15, 2014

  Actual Average Record
Temperature  
Mean Temperature 37 °F -  
Max Temperature 41 °F 42 °F 54 °F (1970)
Min Temperature 33 °F 32 °F 16 °F (1964)
Degree Days  
Heating Degree Days 28    
Moisture  
Dew Point 32 °F    
Average Humidity 79    
Maximum Humidity 87    
Minimum Humidity 67    
Precipitation  
Precipitation 0.08 in - - ()
Sea Level Pressure  
Sea Level Pressure 29.42 in    
Wind  
Wind Speed 2 mph (WSW)    
Max Wind Speed 10 mph    
Max Gust Speed -    
Visibility 9 miles    
Events      
Averages and records for this station are not official NWS values.
T = Trace of Precipitation, MM = Missing Value Source: NWS Daily Summary

Daily Weather History Graph

Daily Weather History Graph

Search for Another Location

Airport or City:

Trip Planner

Search our weather history database for the weather conditions in past years. The results will help you decide how hot, cold, wet, or windy it might be!

Date:

Astronomy

Nov. 15, 2014 Rise Set
Actual Time 9:06 AM HAST 5:55 PM HAST
Civil Twilight 8:29 AM HAST 6:32 PM HAST
Nautical Twilight 7:47 AM HAST 7:13 PM HAST
Astronomical Twilight 7:08 AM HAST 7:53 PM HAST
Moon 1:44 AM HAST (11/15) 3:09 PM HAST (11/15)
Length of Visible Light 10h 03m
Length of Day
8h 48m
Last Quarter, 38% of the Moon is Illuminated
Nov 15
Last Quarter
Nov 22
New
Nov 29
First Quarter
Dec 6
Full
Dec 14
Last Quarter

Hourly Weather History & Observations

Time (HAST) Temp. Windchill Dew Point Humidity Pressure Visibility Wind Dir Wind Speed Gust Speed Precip Events Conditions
12:16 AM 35.6 °F - 30.2 °F 81% 29.38 in 10.0 mi Calm Calm - N/A   Overcast
12:36 AM 35.6 °F - 32.0 °F 87% 29.38 in 10.0 mi Calm Calm - N/A   Overcast
12:56 AM 37.4 °F - 33.8 °F 87% 29.38 in 10.0 mi Calm Calm - N/A   Overcast
1:16 AM 37.4 °F 34.9 °F 32.0 °F 81% 29.38 in 10.0 mi NW 3.5 mph - N/A   Overcast
1:36 AM 37.4 °F 34.9 °F 32.0 °F 81% 29.38 in 10.0 mi NNW 3.5 mph - N/A   Overcast
1:56 AM 37.4 °F - 30.2 °F 75% 29.38 in 8.0 mi Calm Calm - N/A   Overcast
2:16 AM 37.4 °F - 32.0 °F 81% 29.38 in 10.0 mi Calm Calm - N/A   Overcast
2:36 AM 37.4 °F - 32.0 °F 81% 29.38 in 10.0 mi Calm Calm - N/A   Overcast
2:56 AM 39.2 °F - 33.8 °F 81% 29.38 in 10.0 mi Calm Calm - N/A   Mostly Cloudy
3:16 AM 39.2 °F 34.2 °F 33.8 °F 81% 29.38 in 5.0 mi East 6.9 mph - N/A   Overcast
3:36 AM 39.2 °F - 33.8 °F 81% 29.39 in 10.0 mi Calm Calm - N/A   Mostly Cloudy
3:56 AM 37.4 °F 34.9 °F 30.2 °F 75% 29.39 in 10.0 mi NNW 3.5 mph - N/A   Scattered Clouds
4:16 AM 35.6 °F - 30.2 °F 81% 29.39 in 10.0 mi Calm Calm - N/A   Mostly Cloudy
4:36 AM 35.6 °F 32.8 °F 28.4 °F 75% 29.39 in 10.0 mi North 3.5 mph - N/A   Mostly Cloudy
4:56 AM 37.4 °F 32.8 °F 30.2 °F 75% 29.40 in 10.0 mi SW 5.8 mph - N/A   Overcast
5:16 AM 35.6 °F 30.7 °F 30.2 °F 81% 29.40 in 8.0 mi SW 5.8 mph - 0.01 in   Overcast
5:36 AM 39.2 °F - 32.0 °F 75% 29.40 in 9.0 mi Calm Calm - 0.03 in   Overcast
5:56 AM 39.2 °F 37.0 °F 32.0 °F 75% 29.40 in 10.0 mi SE 3.5 mph - 0.03 in   Overcast
6:16 AM 39.2 °F - 33.8 °F 81% 29.41 in 4.0 mi Calm Calm - 0.01 in   Overcast
6:36 AM 37.4 °F - 32.0 °F 81% 29.41 in 8.0 mi Calm Calm - 0.03 in   Overcast
6:56 AM 37.4 °F 32.8 °F 32.0 °F 81% 29.41 in 10.0 mi WSW 5.8 mph - 0.03 in   Overcast
7:16 AM 37.4 °F 31.4 °F 32.0 °F 81% 29.42 in 10.0 mi SW 8.1 mph - N/A   Overcast
7:36 AM 37.4 °F 34.9 °F 32.0 °F 81% 29.42 in 5.0 mi West 3.5 mph - 0.01 in   Overcast
7:56 AM 37.4 °F - 32.0 °F 81% 29.42 in 5.0 mi Calm Calm - 0.01 in   Overcast
8:16 AM 37.4 °F 33.8 °F 30.2 °F 75% 29.43 in 10.0 mi SW 4.6 mph - N/A   Mostly Cloudy
8:36 AM 35.6 °F - 30.2 °F 81% 29.43 in 10.0 mi Calm Calm - N/A   Overcast
8:56 AM 37.4 °F 33.8 °F 32.0 °F 81% 29.44 in 9.0 mi NNE 4.6 mph - N/A   Overcast
9:16 AM 37.4 °F - 32.0 °F 81% 29.44 in 9.0 mi Calm Calm - 0.01 in   Mostly Cloudy
9:36 AM 37.4 °F 32.1 °F 32.0 °F 81% 29.44 in 10.0 mi North 6.9 mph - 0.01 in   Overcast
9:56 AM 37.4 °F 33.8 °F 32.0 °F 81% 29.44 in 10.0 mi North 4.6 mph - 0.01 in   Overcast
10:16 AM 37.4 °F - 32.0 °F 81% 29.44 in 10.0 mi Calm Calm - N/A   Overcast
10:36 AM 37.4 °F 34.9 °F 33.8 °F 87% 29.45 in 10.0 mi WSW 3.5 mph - N/A   Overcast
10:56 AM 39.2 °F 37.0 °F 33.8 °F 81% 29.45 in 10.0 mi SW 3.5 mph - N/A   Mostly Cloudy
11:16 AM 39.2 °F 37.0 °F 33.8 °F 81% 29.45 in 10.0 mi WSW 3.5 mph - N/A   Mostly Cloudy
11:36 AM 39.2 °F - 33.8 °F 81% 29.44 in 10.0 mi Calm Calm - N/A   Overcast
11:56 AM 39.2 °F - 33.8 °F 81% 29.45 in 10.0 mi Calm Calm - N/A   Mostly Cloudy
12:16 PM 41.0 °F 39.0 °F 33.8 °F 76% 29.45 in 10.0 mi WSW 3.5 mph - N/A   Mostly Cloudy
12:36 PM 42.8 °F 41.1 °F 35.6 °F 76% 29.45 in 10.0 mi WSW 3.5 mph - N/A   Overcast
12:56 PM 42.8 °F 38.0 °F 35.6 °F 76% 29.44 in 10.0 mi SW 8.1 mph - N/A   Overcast
1:16 PM 41.0 °F 34.7 °F 33.8 °F 76% 29.44 in 8.0 mi WSW 10.4 mph - N/A   Overcast
1:36 PM 39.2 °F 34.2 °F 33.8 °F 81% 29.44 in 10.0 mi WSW 6.9 mph - N/A   Mostly Cloudy
1:56 PM 41.0 °F 36.4 °F 33.8 °F 76% 29.44 in 10.0 mi West 6.9 mph - N/A   Overcast
2:16 PM 39.2 °F - 33.8 °F 81% 29.44 in 6.0 mi Calm Calm - N/A   Overcast
2:36 PM 39.2 °F 35.9 °F 33.8 °F 81% 29.44 in 5.0 mi SSE 4.6 mph - N/A   Overcast
2:56 PM 39.2 °F - 33.8 °F 81% 29.44 in 10.0 mi Calm Calm - N/A   Overcast
3:16 PM 39.2 °F 37.0 °F 32.0 °F 75% 29.43 in 10.0 mi East 3.5 mph - N/A   Overcast
3:36 PM 39.2 °F 35.0 °F 33.8 °F 81% 29.43 in 10.0 mi ENE 5.8 mph - N/A   Overcast
3:56 PM 39.2 °F 35.9 °F 33.8 °F 81% 29.43 in 10.0 mi NE 4.6 mph - N/A   Overcast
4:16 PM 39.2 °F 37.0 °F 32.0 °F 75% 29.43 in 10.0 mi North 3.5 mph - N/A   Overcast
4:36 PM 39.2 °F 35.0 °F 33.8 °F 81% 29.44 in 2.5 mi West 5.8 mph - N/A   Overcast
4:56 PM 39.2 °F 35.9 °F 33.8 °F 81% 29.44 in 2.5 mi West 4.6 mph - N/A   Overcast
5:16 PM 39.2 °F - 33.8 °F 81% 29.44 in 2.0 mi Calm Calm - N/A   Overcast
5:36 PM 37.4 °F - 32.0 °F 81% 29.44 in 5.0 mi Calm Calm - N/A   Overcast
5:56 PM 37.4 °F - 33.8 °F 87% 29.44 in 7.0 mi Calm Calm - N/A   Overcast
6:16 PM 37.4 °F 34.9 °F 32.0 °F 81% 29.44 in 10.0 mi West 3.5 mph - N/A   Overcast
6:36 PM 37.4 °F - 32.0 °F 81% 29.44 in 10.0 mi Calm Calm - N/A   Overcast
6:56 PM 37.4 °F 34.9 °F 32.0 °F 81% 29.43 in 10.0 mi West 3.5 mph - N/A   Overcast
7:16 PM 37.4 °F 33.8 °F 30.2 °F 75% 29.43 in 10.0 mi West 4.6 mph - N/A   Overcast
7:36 PM 37.4 °F - 30.2 °F 75% 29.44 in 10.0 mi Calm Calm - N/A   Overcast
7:56 PM 37.4 °F 33.8 °F 30.2 °F 75% 29.44 in 10.0 mi SW 4.6 mph - N/A   Overcast
8:16 PM 37.4 °F 32.8 °F 30.2 °F 75% 29.44 in 10.0 mi SW 5.8 mph - N/A   Overcast
8:36 PM 37.4 °F 32.1 °F 30.2 °F 75% 29.44 in 10.0 mi WSW 6.9 mph - N/A   Overcast
8:56 PM 37.4 °F 32.8 °F 30.2 °F 75% 29.44 in 10.0 mi WSW 5.8 mph - N/A   Overcast
9:16 PM 37.4 °F 32.8 °F 30.2 °F 75% 29.44 in 10.0 mi WSW 5.8 mph - N/A   Overcast
9:36 PM 37.4 °F 32.8 °F 30.2 °F 75% 29.43 in 10.0 mi WSW 5.8 mph - N/A   Overcast
9:56 PM 37.4 °F 32.1 °F 30.2 °F 75% 29.43 in 10.0 mi SW 6.9 mph - N/A   Overcast
10:16 PM 35.6 °F 29.9 °F 30.2 °F 81% 29.43 in 10.0 mi WSW 6.9 mph - N/A   Overcast
10:36 PM 35.6 °F - 30.2 °F 81% 29.42 in 10.0 mi Calm Calm - N/A   Overcast
10:56 PM 35.6 °F - 30.2 °F 81% 29.42 in 10.0 mi Calm Calm - N/A   Overcast
11:16 PM 35.6 °F - 28.4 °F 75% 29.42 in 10.0 mi Calm Calm - N/A   Mostly Cloudy
11:36 PM 33.8 °F - 28.4 °F 81% 29.42 in 10.0 mi Calm Calm - N/A   Overcast
11:56 PM 33.8 °F - 28.4 °F 81% 29.42 in 10.0 mi Calm Calm - N/A   Mostly Cloudy